This is the latest recevied weather packets stored in our database for station/object DC4THF-13. If no packets are shown the sender has not sent any weather packets the latest 1 day(s).
| Time | Temp. | Humidity | Pressure | Rain* | Wind** | Luminosity | Snow |
|---|---|---|---|---|---|---|---|
| 1778074989 | 13.33° C | 77% | 1001.4 hPa | 0 mm | - | - | - |
| 1778073782 | 13.33° C | 78% | 1001.4 hPa | 0 mm | - | - | - |
| 1778073179 | 13.33° C | 77% | 1001.4 hPa | 0 mm | - | - | - |
| 1778071971 | 13.33° C | 80% | 1001.2 hPa | 0 mm | - | - | - |
| 1778068347 | 12.78° C | 81% | 1001.3 hPa | 0 mm | - | - | - |
| 1778064788 | 12.78° C | 83% | 1000.6 hPa | 0 mm | - | - | - |
| 1778062375 | 12.78° C | 91% | 1000.4 hPa | 0 mm | - | - | - |
| 1778061772 | 12.78° C | 93% | 1000.3 hPa | 0.25 mm | - | - | - |
| 1778061169 | 12.22° C | 97% | 1000.3 hPa | 0.51 mm | - | - | - |
| 1778059962 | 11.67° C | 99% | 1000 hPa | 0.51 mm | - | - | - |
| 1778059359 | 12.22° C | 99% | 1000 hPa | 0.51 mm | - | - | - |
| 1778058756 | 12.22° C | 99% | 999.8 hPa | 1.02 mm | - | - | - |
| 1778056946 | 11.67° C | 99% | 999.9 hPa | 0.51 mm | - | - | - |
| 1778056343 | 11.67° C | 99% | 999.7 hPa | 0.51 mm | - | - | - |
| 1778054593 | 11.67° C | 99% | 999.5 hPa | 1.02 mm | - | - | - |
| 1778053989 | 11.11° C | 99% | 999.4 hPa | 1.02 mm | - | - | - |
| 1778051574 | 11.11° C | 99% | 999.2 hPa | 1.52 mm | - | - | - |
| 1778050970 | 11.11° C | 99% | 999.2 hPa | 1.78 mm | - | - | - |
| 1778050367 | 11.11° C | 99% | 999.1 hPa | 2.29 mm | - | - | - |
| 1778049764 | 11.11° C | 99% | 999.1 hPa | 2.29 mm | - | - | - |
| 1778049161 | 11.11° C | 99% | 999.1 hPa | 2.29 mm | - | - | - |
| 1778047954 | 11.11° C | 99% | 999.1 hPa | 2.29 mm | - | - | - |
| 1778046748 | 11.11° C | 99% | 998.8 hPa | 1.78 mm | - | - | - |
| 1778046145 | 11.11° C | 99% | 998.8 hPa | 2.03 mm | - | - | - |
| 1778045542 | 11.11° C | 99% | 998.8 hPa | 1.78 mm | - | - | - |
* Rain latest hour (hover to see other rain measurements)
** Current wind speed in m/s (hover to see current wind gust speed)